DW8052 Weather Reports


time (UTC)temp
F
wind
direction
speed
knots
gust
knots
rain 1hr
in
rain 24hr
in
rain mn
in
humidity
%
barometer
mb
20260904093709 64 257 0.9 2.6 0.00 0.00 0.00 65 1018.8
20260904093209 64 342 0.0 0.0 0.00 0.00 0.00 65 1018.7
20260904092708 64 342 0.0 0.0 0.00 0.00 0.00 65 1018.5
20260904091709 64 342 0.0 1.7 0.00 0.00 0.00 65 1018.3
20260904091209 64 342 1.7 2.6 0.00 0.00 0.00 65 1018.4
20260904090708 64 342 2.6 2.6 0.00 0.00 0.00 65 1018.1
20260904090208 64 353 1.7 5.2 0.00 0.00 0.00 64 1018.1
20260904085709 64 357 2.6 7.8 0.00 0.00 0.00 64 1017.9
20260904085209 64 358 4.3 7.8 0.00 0.00 0.00 64 1017.9
20260904084708 64 350 5.2 8.7 0.00 0.00 0.00 64 1017.8
20260904084208 64 2 4.3 7.8 0.00 0.00 0.00 64 1017.6
20260904083708 64 338 4.3 7.8 0.00 0.00 0.00 64 1017.6
20260904083209 64 346 5.2 8.7 0.00 0.00 0.00 63 1017.5
20260904082709 64 342 4.3 7.0 0.00 0.00 0.00 62 1017.6
20260904082209 64 5 4.3 8.7 0.00 0.00 0.00 61 1017.5
20260904081709 64 2 2.6 8.7 0.00 0.00 0.00 61 1017.7
20260904081209 64 351 4.3 8.7 0.00 0.00 0.00 61 1017.2
20260904080709 64 6 4.3 10.4 0.00 0.00 0.00 62 1017.1
20260904080209 64 1 5.2 8.7 0.00 0.00 0.00 63 1017.2
20260904075708 64 357 6.1 10.4 0.00 0.00 0.00 64 1017.3
20260904075209 64 13 4.3 7.8 0.00 0.00 0.00 65 1017.1
20260904074209 64 30 3.5 7.0 0.00 0.00 0.00 63 1017.1
20260904073709 64 48 3.5 6.1 0.00 0.00 0.00 63 1017.0
20260904073208 64 15 5.2 8.7 0.00 0.00 0.00 63 1017.0
20260904072708 64 9 5.2 7.8 0.00 0.00 0.00 63 1016.9
20260904072209 64 5 5.2 10.4 0.00 0.00 0.00 65 1016.9
20260904071708 64 28 5.2 7.8 0.00 0.00 0.00 66 1016.7
20260904071209 64 36 7.0 8.7 0.00 0.00 0.00 67 1016.7
20260904070709 64 35 7.8 10.4 0.00 0.00 0.00 66 1016.6
20260904065708 64 34 7.8 12.2 0.00 0.00 0.00 65 1016.7
20260904065209 64 39 11.3 13.9 0.00 0.00 0.00 64 1016.7
20260904064208 64 44 10.4 12.2 0.00 0.00 0.00 63 1016.9
20260904063708 64 48 9.6 12.2 0.00 0.00 0.00 64 1016.8
20260904063208 64 48 10.4 13.0 0.00 0.00 0.00 63 1016.7
20260904062208 64 49 13.0 14.8 0.00 0.00 0.00 62 1016.8
20260904061208 65 62 12.2 14.8 0.00 0.00 0.00 61 1016.6
20260904060708 65 64 12.2 14.8 0.00 0.00 0.00 59 1016.7
20260904060208 65 63 11.3 13.0 0.00 0.00 0.00 59 1016.7
20260904055708 65 66 11.3 14.8 0.00 0.00 0.00 58 1016.7
20260904055208 65 69 11.3 14.8 0.00 0.00 0.00 58 1016.6
20260904054709 65 65 12.2 15.6 0.00 0.00 0.00 58 1016.8
20260904054209 65 66 13.0 15.6 0.00 0.00 0.00 58 1016.7
20260904053708 64 58 13.0 14.8 0.00 0.00 0.00 59 1016.7
20260904053208 64 62 13.9 15.6 0.00 0.00 0.00 61 1016.9
20260904052709 64 61 13.9 17.4 0.00 0.00 0.00 62 1016.7
20260904052208 64 64 14.8 17.4 0.00 0.00 0.00 63 1016.7
20260904051708 64 63 14.8 17.4 0.00 0.00 0.00 63 1016.8
20260904051208 64 63 14.8 17.4 0.00 0.00 0.00 63 1016.9
20260904050708 64 58 14.8 17.4 0.00 0.00 0.00 64 1017.0
20260904050208 65 65 13.9 17.4 0.00 0.00 0.00 64 1017.0
20260904045709 65 71 11.3 15.6 0.00 0.00 0.00 63 1016.9
20260904045209 65 74 12.2 17.4 0.00 0.00 0.00 62 1017.0
20260904044708 66 70 12.2 17.4 0.00 0.00 0.00 60 1017.0
20260904044209 67 74 11.3 17.4 0.00 0.00 0.00 58 1017.2
20260904043709 68 82 9.6 13.0 0.00 0.00 0.00 58 1017.1
20260904042709 68 85 6.1 10.4 0.00 0.00 0.00 56 1017.4
20260904042208 68 91 7.0 10.4 0.00 0.00 0.00 56 1017.6
20260904041708 68 89 6.1 10.4 0.00 0.00 0.00 55 1017.7
20260904041208 68 89 7.0 10.4 0.00 0.00 0.00 55 1017.8
20260904040708 68 88 6.1 10.4 0.00 0.00 0.00 57 1017.5
20260904040208 68 85 6.1 10.4 0.00 0.00 0.00 58 1017.6
20260904035708 67 90 7.0 10.4 0.00 0.00 0.00 59 1017.5
20260904035208 67 81 6.1 10.4 0.00 0.00 0.00 59 1017.6
20260904034708 67 114 7.8 10.4 0.00 0.00 0.00 58 1017.9
20260904034208 66 88 5.2 8.7 0.00 0.00 0.00 59 1018.1
20260904033708 66 73 8.7 13.0 0.00 0.00 0.00 58 1018.0
20260904032708 68 74 10.4 12.2 0.00 0.00 0.00 54 1018.2
20260904032208 68 49 2.6 8.7 0.00 0.00 0.00 48 1018.3
20260904031708 69 71 8.7 12.2 0.00 0.00 0.00 51 1018.2
20260904031208 70 81 6.1 10.4 0.00 0.00 0.00 50 1018.1
20260904030708 70 87 3.5 5.2 0.00 0.00 0.00 50 1018.2
20260904025708 68 89 4.3 7.8 0.00 0.00 0.00 54 1018.7
20260904025208 68 106 6.1 8.7 0.00 0.00 0.00 53 1018.5
20260904024709 69 111 7.0 10.4 0.00 0.00 0.00 52 1018.6
20260904024208 69 115 7.8 8.7 0.00 0.00 0.00 51 1018.8
20260904023708 69 121 5.2 7.8 0.00 0.00 0.00 49 1018.9
20260904023208 69 85 3.5 6.1 0.00 0.00 0.00 52 1019.0
20260904022708 69 21 2.6 6.1 0.00 0.00 0.00 53 1018.9
20260904022209 69 95 6.1 8.7 0.00 0.00 0.00 50 1019.1
20260904021208 70 100 4.3 6.1 0.00 0.00 0.00 50 1019.4
20260904020708 70 92 3.5 6.1 0.00 0.00 0.00 50 1019.4
20260904020208 70 80 5.2 7.0 0.00 0.00 0.00 50 1019.4
20260904015708 70 94 4.3 7.0 0.00 0.00 0.00 49 1019.5
20260904015208 70 72 4.3 7.0 0.00 0.00 0.00 48 1019.8
20260904014709 71 101 5.2 7.0 0.00 0.00 0.00 45 1019.9
20260904014208 71 125 6.1 7.0 0.00 0.00 0.00 44 1020.1
20260904013708 71 104 2.6 5.2 0.00 0.00 0.00 42 1020.0
20260904013208 71 95 3.5 6.1 0.00 0.00 0.00 41 1020.2
20260904012208 71 117 4.3 6.1 0.00 0.00 0.00 44 1020.6
20260904011208 72 106 4.3 6.1 0.00 0.00 0.00 46 1020.5
20260904010708 73 105 2.6 4.3 0.00 0.00 0.00 43 1020.6
20260904010208 73 92 0.9 2.6 0.00 0.00 0.00 41 1020.7
20260904005708 73 113 3.5 7.0 0.00 0.00 0.00 41 1020.9
20260904005208 74 108 2.6 4.3 0.00 0.00 0.00 42 1020.9
20260904004708 73 98 1.7 2.6 0.00 0.00 0.00 38 1020.7
20260904004207 73 295 1.7 2.6 0.00 0.00 0.00 36 1020.7
20260904003707 72 246 1.7 2.6 0.00 0.00 0.00 37 1020.8
20260904003207 71 218 1.7 10.4 0.00 0.00 0.00 38 1020.8
20260904002208 70 273 2.6 6.1 0.00 0.00 0.00 38 1020.9
20260904001708 71 277 5.2 8.7 0.00 0.00 0.00 34 1020.8
20260904000708 71 255 1.7 4.3 0.00 0.00 0.00 37 1021.0
20260904000207 71 242 3.5 6.1 0.00 0.00 0.00 39 1021.1
20260903235208 69 245 6.1 8.7 0.00 0.00 0.00 40 1021.1
20260903234208 68 275 4.3 7.0 0.00 0.00 0.00 44 1021.2
20260903233708 67 265 6.1 10.4 0.00 0.00 0.00 45 1021.3
20260903233207 67 260 8.7 10.4 0.00 0.00 0.00 45 1021.5
20260903232708 67 276 7.0 11.3 0.00 0.00 0.00 45 1021.6
20260903232208 67 262 6.1 10.4 0.00 0.00 0.00 46 1021.6
20260903231707 66 293 5.2 10.4 0.00 0.00 0.00 48 1021.6
20260903231207 65 261 10.4 13.0 0.00 0.00 0.00 47 1021.6
20260903230707 65 269 10.4 14.8 0.00 0.00 0.00 48 1021.8
20260903225708 65 268 11.3 13.9 0.00 0.00 0.00 48 1021.7
20260903225208 65 270 8.7 12.2 0.00 0.00 0.00 49 1021.7
20260903224707 64 270 5.2 11.3 0.00 0.00 0.00 50 1021.9
20260903224208 64 278 8.7 13.0 0.00 0.00 0.00 51 1022.0
20260903223708 64 274 9.6 12.2 0.00 0.00 0.00 51 1021.6
20260903222707 63 268 11.3 13.0 0.00 0.00 0.00 51 1021.6
20260903222208 63 263 8.7 13.0 0.00 0.00 0.00 52 1021.8
20260903221708 63 252 8.7 11.3 0.00 0.00 0.00 53 1021.7
20260903221208 62 267 7.8 13.9 0.00 0.00 0.00 54 1021.9
20260903220707 62 269 10.4 13.9 0.00 0.00 0.00 53 1021.7
20260903220208 62 267 7.8 15.6 0.00 0.00 0.00 54 1021.8
20260903215707 62 261 8.7 13.0 0.00 0.00 0.00 54 1021.8
20260903215208 61 264 7.0 13.9 0.00 0.00 0.00 56 1021.6
20260903214707 61 279 5.2 11.3 0.00 0.00 0.00 56 1021.9
20260903214208 61 283 5.2 15.6 0.00 0.00 0.00 56 1021.6
20260903213208 61 273 7.8 10.4 0.00 0.00 0.00 56 1021.6
20260903212707 60 274 6.1 13.9 0.00 0.00 0.00 57 1021.4
20260903211707 60 269 7.8 11.3 0.00 0.00 0.00 57 1021.3
20260903210707 59 269 5.2 10.4 0.00 0.00 0.00 59 1021.3
20260903205208 58 270 7.8 11.3 0.00 0.00 0.00 60 1021.1
20260903204707 58 266 10.4 13.9 0.00 0.00 0.00 60 1021.0
20260903204208 58 273 10.4 13.0 0.00 0.00 0.00 60 1021.1
20260903203707 58 258 7.0 13.0 0.00 0.00 0.00 61 1021.1
20260903203207 57 259 10.4 13.0 0.00 0.00 0.00 61 1020.9
20260903202707 57 254 11.3 15.6 0.00 0.00 0.00 61 1020.8
20260903202208 57 257 10.4 15.6 0.00 0.00 0.00 61 1020.8
20260903201707 57 256 12.2 15.6 0.00 0.00 0.00 61 1020.7
20260903201208 57 253 12.2 15.6 0.00 0.00 0.00 61 1020.8
20260903200707 57 246 11.3 14.8 0.00 0.00 0.00 61 1020.9
20260903200208 57 254 12.2 14.8 0.00 0.00 0.00 61 1020.7
20260903195707 57 260 11.3 17.4 0.00 0.00 0.00 61 1020.5
20260903195207 57 263 9.6 13.0 0.00 0.00 0.00 61 1020.6
20260903194707 57 251 10.4 14.8 0.00 0.00 0.00 60 1020.7
20260903194208 57 252 11.3 14.8 0.00 0.00 0.00 60 1020.5
20260903193207 57 254 11.3 15.6 0.00 0.00 0.00 60 1020.2
20260903192707 57 251 9.6 14.8 0.00 0.00 0.00 60 1020.1
20260903192208 57 260 12.2 17.4 0.00 0.00 0.00 60 1019.9
20260903191708 57 255 10.4 15.6 0.00 0.00 0.00 60 1020.0
20260903191207 58 259 10.4 14.8 0.00 0.00 0.00 60 1019.9
20260903190707 58 264 9.6 13.9 0.00 0.00 0.00 60 1019.9
20260903190207 58 261 9.6 14.8 0.00 0.00 0.00 60 1020.0
20260903185207 58 261 12.2 17.4 0.00 0.00 0.00 60 1020.0
20260903184207 58 260 12.2 17.4 0.00 0.00 0.00 60 1019.9
20260903183708 58 263 10.4 15.6 0.00 0.00 0.00 60 1019.8
20260903183207 58 262 12.2 17.4 0.00 0.00 0.00 60 1019.7
20260903182707 58 263 13.0 18.2 0.00 0.00 0.00 59 1019.6
20260903182207 58 261 12.2 17.4 0.00 0.00 0.00 59 1019.6
20260903181707 58 268 13.9 20.9 0.00 0.00 0.00 59 1019.5
20260903181207 58 262 12.2 19.1 0.00 0.00 0.00 59 1019.2
20260903180707 58 254 13.9 18.2 0.00 0.00 0.00 59 1019.3
20260903180208 58 260 10.4 18.2 0.00 0.00 0.00 59 1019.3
20260903175707 58 265 11.3 19.1 0.00 0.00 0.00 58 1019.3
20260903174707 58 264 11.3 17.4 0.00 0.00 0.00 58 1019.2
20260903174207 58 263 13.0 19.1 0.00 0.00 0.00 58 1019.2
20260903173206 58 271 13.0 17.4 0.00 0.00 0.00 58 1019.2
20260903172707 58 266 13.9 18.2 0.00 0.00 0.00 58 1019.4
20260903172207 58 261 13.0 19.1 0.00 0.00 0.00 57 1019.2
20260903171207 58 264 13.9 19.1 0.00 0.00 0.00 57 1019.0
20260903170707 58 271 12.2 17.4 0.00 0.00 0.00 57 1019.0
20260903170207 58 266 13.9 18.2 0.00 0.00 0.00 57 1019.3
20260903165707 58 269 13.9 18.2 0.00 0.00 0.00 57 1019.1
20260903165207 58 268 13.9 17.4 0.00 0.00 0.00 56 1019.0
20260903164207 59 267 12.2 17.4 0.00 0.00 0.00 56 1019.4
20260903163707 58 266 13.9 20.9 0.00 0.00 0.00 56 1019.2
20260903163206 58 267 14.8 20.0 0.00 0.00 0.00 56 1019.1
20260903162707 58 258 13.9 17.4 0.00 0.00 0.00 56 1019.0
20260903162207 58 263 12.2 17.4 0.00 0.00 0.00 56 1019.3
20260903161707 58 268 12.2 18.2 0.00 0.00 0.00 56 1019.3
20260903161207 58 275 12.2 18.2 0.00 0.00 0.00 56 1019.3
20260903160707 58 278 12.2 17.4 0.00 0.00 0.00 57 1019.4
20260903160207 58 276 12.2 17.4 0.00 0.00 0.00 57 1019.4
20260903155707 58 281 8.7 13.9 0.00 0.00 0.00 56 1019.4
20260903154206 58 283 11.3 13.9 0.00 0.00 0.00 56 1019.9
20260903153706 58 279 6.1 14.8 0.00 0.00 0.00 55 1019.9
20260903153207 58 281 10.4 17.4 0.00 0.00 0.00 56 1019.9
20260903152706 58 278 14.8 17.4 0.00 0.00 0.00 56 1019.5
20260903152207 58 279 11.3 17.4 0.00 0.00 0.00 56 1019.7
20260903151707 58 286 10.4 13.0 0.00 0.00 0.00 56 1020.1
20260903151207 58 285 7.8 12.2 0.00 0.00 0.00 56 1020.1
20260903150207 58 288 10.4 12.2 0.00 0.00 0.00 56 1019.9
20260903145707 59 292 8.7 11.3 0.00 0.00 0.00 56 1020.0
20260903144706 59 286 10.4 13.9 0.00 0.00 0.00 55 1020.1
20260903144207 59 289 9.6 12.2 0.00 0.00 0.00 55 1020.0
20260903143707 59 282 7.8 10.4 0.00 0.00 0.00 55 1020.0
20260903143206 59 289 7.8 10.4 0.00 0.00 0.00 54 1020.0
20260903142706 59 293 7.8 11.3 0.00 0.00 0.00 54 1019.9
20260903142207 59 307 7.8 11.3 0.00 0.00 0.00 54 1020.1
20260903141706 60 299 5.2 7.8 0.00 0.00 0.00 54 1019.9
20260903141207 60 311 6.1 12.2 0.00 0.00 0.00 53 1019.9
20260903140706 60 294 9.6 13.0 0.00 0.00 0.00 53 1019.8
20260903140206 60 291 6.1 11.3 0.00 0.00 0.00 53 1020.1
20260903135707 60 288 6.1 11.3 0.00 0.00 0.00 53 1020.2
20260903135207 60 285 10.4 13.9 0.00 0.00 0.00 53 1019.7
20260903134707 60 281 11.3 14.8 0.00 0.00 0.00 52 1019.9
20260903134207 60 279 10.4 14.8 0.00 0.00 0.00 52 1019.8
20260903133207 61 291 8.7 11.3 0.00 0.00 0.00 52 1019.8
20260903132706 61 287 6.1 8.7 0.00 0.00 0.00 51 1019.8
20260903132206 61 286 5.2 7.8 0.00 0.00 0.00 51 1020.1
20260903131706 61 267 6.1 8.7 0.00 0.00 0.00 51 1019.8
20260903130207 61 259 6.1 10.4 0.00 0.00 0.00 51 1019.8
20260903125707 62 259 5.2 7.8 0.00 0.00 0.00 51 1019.7
20260903125206 62 265 5.2 8.7 0.00 0.00 0.00 51 1019.5
20260903124706 62 272 7.8 13.0 0.00 0.00 0.00 50 1019.6
20260903124207 62 269 7.8 13.9 0.00 0.00 0.00 50 1019.3
20260903123706 62 272 6.1 12.2 0.00 0.00 0.00 50 1019.4
20260903123207 62 245 6.1 10.4 0.00 0.00 0.00 50 1019.5
20260903122206 62 255 12.2 18.2 0.00 0.00 0.00 50 1019.3
20260903121707 62 254 15.6 24.3 0.00 0.00 0.00 50 1018.9
20260903121206 62 242 16.5 27.8 0.00 0.00 0.00 50 1018.9
20260903120714 63 254 22.6 31.3 0.00 0.00 0.00 49 1018.6
20260903120206 62 257 18.2 26.9 0.00 0.00 0.00 50 1018.6
20260903115706 63 256 15.6 22.6 0.00 0.00 0.00 50 1018.6
20260903114706 63 248 19.1 24.3 0.00 0.00 0.00 50 1018.5
20260903114207 63 248 19.1 26.1 0.00 0.00 0.00 50 1018.3
20260903113207 63 246 19.1 27.8 0.00 0.00 0.00 49 1018.0
20260903112706 63 247 20.9 28.7 0.00 0.00 0.00 49 1017.9
20260903111706 64 240 17.4 20.9 0.00 0.00 0.00 49 1018.0
20260903111207 64 238 16.5 22.6 0.00 0.00 0.00 49 1018.0
20260903110706 64 245 19.1 22.6 0.00 0.00 0.00 48 1018.0
20260903110207 64 247 17.4 24.3 0.00 0.00 0.00 48 1017.7
20260903105706 64 248 16.5 25.2 0.00 0.00 0.00 48 1017.7
20260903105206 64 247 18.2 24.3 0.00 0.00 0.00 48 1017.5
20260903104706 64 244 17.4 22.6 0.00 0.00 0.00 47 1017.2
20260903104206 65 247 16.5 22.6 0.00 0.00 0.00 47 1017.2
20260903103706 65 244 14.8 21.7 0.00 0.00 0.00 47 1017.1
20260903103206 65 240 14.8 20.0 0.00 0.00 0.00 45 1017.3
20260903102206 65 229 6.1 12.2 0.00 0.00 0.00 42 1017.1
20260903101706 65 222 6.1 10.4 0.00 0.00 0.00 41 1017.0
20260903100707 66 233 8.7 15.6 0.00 0.00 0.00 40 1016.8
20260903100206 67 236 11.3 15.6 0.00 0.00 0.00 39 1016.4
20260903095706 67 228 9.6 13.9 0.00 0.00 0.00 37 1016.5
20260903095206 67 219 6.1 10.4 0.00 0.00 0.00 35 1016.4
20260903094706 68 215 6.1 11.3 0.00 0.00 0.00 35 1016.3
20260903094206 68 222 7.0 11.3 0.00 0.00 0.00 35 1016.3